TimeCDT,TemperatureF,Dew PointF,Humidity,Sea Level PressureIn,VisibilityMPH,Wind Direction,Wind SpeedMPH,Gust SpeedMPH,PrecipitationIn,Events,Conditions,WindDirDegrees,DateUTC
12:52 AM,52.0,46.0,80,30.35,10.0,ESE,3.5,-,N/A,,Scattered Clouds,120,2013-09-17 05:52:00
1:52 AM,51.1,46.0,83,30.36,10.0,WNW,3.5,-,N/A,,Scattered Clouds,290,2013-09-17 06:52:00
2:52 AM,50.0,45.0,83,30.35,10.0,WNW,3.5,-,N/A,,Scattered Clouds,300,2013-09-17 07:52:00
3:52 AM,50.0,45.0,83,30.35,10.0,WNW,3.5,-,N/A,,Scattered Clouds,300,2013-09-17 08:52:00
4:52 AM,48.0,44.1,86,30.35,10.0,Calm,Calm,-,N/A,,Scattered Clouds,0,2013-09-17 09:52:00
5:52 AM,48.9,45.0,86,30.34,10.0,Calm,Calm,-,N/A,,Scattered Clouds,0,2013-09-17 10:52:00
6:52 AM,48.9,45.0,86,30.35,10.0,Calm,Calm,-,N/A,,Mostly Cloudy,0,2013-09-17 11:52:00
7:52 AM,53.1,48.0,83,30.35,10.0,Calm,Calm,-,N/A,,Mostly Cloudy,0,2013-09-17 12:52:00
8:52 AM,57.9,52.0,81,30.35,10.0,SSW,4.6,-,N/A,,Mostly Cloudy,200,2013-09-17 13:52:00
9:52 AM,62.1,52.0,70,30.34,10.0,South,8.1,-,N/A,,Mostly Cloudy,180,2013-09-17 14:52:00
10:37 AM,62.6,51.8,68,30.33,10.0,South,9.2,-,N/A,,Mostly Cloudy,170,2013-09-17 15:37:00
10:52 AM,62.1,51.1,67,30.33,10.0,SSE,10.4,-,N/A,,Mostly Cloudy,150,2013-09-17 15:52:00
11:35 AM,64.4,55.4,73,30.32,10.0,SSE,12.7,-,N/A,,Mostly Cloudy,150,2013-09-17 16:35:00
11:52 AM,64.0,54.0,70,30.32,10.0,SE,15.0,-,N/A,,Mostly Cloudy,130,2013-09-17 16:52:00
12:19 PM,64.4,53.6,68,30.30,10.0,SE,15.0,-,N/A,,Mostly Cloudy,130,2013-09-17 17:19:00
12:52 PM,64.9,54.0,68,30.30,10.0,SE,17.3,-,N/A,,Mostly Cloudy,140,2013-09-17 17:52:00
1:52 PM,64.0,53.1,67,30.27,10.0,ESE,16.1,-,N/A,,Mostly Cloudy,120,2013-09-17 18:52:00
2:47 PM,64.4,53.6,68,30.25,10.0,SE,15.0,21.9,N/A,,Mostly Cloudy,130,2013-09-17 19:47:00
2:52 PM,64.0,53.1,67,30.25,10.0,SE,15.0,21.9,N/A,,Mostly Cloudy,140,2013-09-17 19:52:00
3:52 PM,64.9,53.1,65,30.22,10.0,SE,16.1,-,N/A,,Mostly Cloudy,140,2013-09-17 20:52:00
4:52 PM,64.0,52.0,65,30.22,10.0,SE,13.8,-,N/A,,Mostly Cloudy,130,2013-09-17 21:52:00
5:52 PM,62.1,52.0,70,30.19,10.0,ESE,10.4,-,N/A,,Mostly Cloudy,120,2013-09-17 22:52:00
6:52 PM,61.0,52.0,72,30.18,10.0,SSE,6.9,-,N/A,,Mostly Cloudy,160,2013-09-17 23:52:00
7:52 PM,61.0,53.1,75,30.18,10.0,South,4.6,-,N/A,,Mostly Cloudy,170,2013-09-18 00:52:00
8:52 PM,62.1,54.0,75,30.17,10.0,SSE,6.9,-,N/A,,Mostly Cloudy,150,2013-09-18 01:52:00
9:52 PM,63.0,54.0,72,30.16,10.0,South,5.8,-,N/A,,Mostly Cloudy,170,2013-09-18 02:52:00
10:52 PM,64.0,55.0,73,30.15,10.0,SSE,8.1,-,N/A,,Mostly Cloudy,150,2013-09-18 03:52:00
11:52 PM,63.0,55.0,75,30.13,10.0,SSE,8.1,-,N/A,,Mostly Cloudy,160,2013-09-18 04:52:00